Flag for Germany Past Weather in Lutherstadt Eisleben, Saxony-Anhalt, Germany — Yesterday and Last 2 Weeks

Now
75 °F

Passing clouds.


Feels Like: 77 °F
Forecast: 56 / 77 °F
Wind: 7 mph from Southwest

Location: Leipzig-Schkeuditz

Current Time: Jul 30, 2016 at 3:12:44 PM

Latest Report: Jul 30, 2016 at 2:50 PM


Visibility: N/A

Pressure: 29.89 "Hg

Humidity: 65%

Dew Point: 63 °F

Location of Lutherstadt EislebenLocation

Past Weather in Lutherstadt Eisleben — Graph

°F

Lutherstadt Eisleben Temperature Yesterday

Maximum temperature yesterday: 79 °F (at 3:20 PM)
Minimum temperature yesterday: 63 °F (at 4:20 AM)
Average temperature yesterday: 69 °F

High & Low Weather Summary for the Past Weeks

 TemperatureHumidityPressure
High88 °F (Jul 22, 3:20 PM)100% (Jul 17, 7:50 AM)30.27 "Hg (Jul 17, 7:50 AM)
Low48 °F (Jul 16, 5:50 AM)25% (Jul 23, 1:50 PM)29.89 "Hg (Jul 21, 4:50 AM)
Average71 °F68%30.06 "Hg
* Reported Jul 15 1:20 PM — Jul 30 1:50 PM, Lutherstadt Eisleben, Weather by CustomWeather, © 2016

Note: Actual official high and low records may vary slightly from our data, if they occured in-between our weather recording intervals... More about our weather records

Advertising

Lutherstadt Eisleben Weather History for the Previous 24 Hours

Scroll right to see more
 ConditionsComfort  
Time TempWeatherWind HumidityBarometerVisibility
1:50 PM
Sat, Jul 30
70 °FSprinkles. Broken clouds.2 mph78%29.92 "HgN/A
1:20 PM72 °FScattered showers. Broken clouds.5 mph69%29.92 "HgN/A
12:50 PM72 °FPartly sunny.6 mph65%29.89 "HgN/A
12:20 PM70 °FScattered clouds.5 mph69%29.92 "HgN/A
11:50 AM68 °FScattered clouds.7 mph73%29.92 "HgN/A
11:20 AM68 °FScattered showers. Broken clouds.12 mph78%29.92 "HgN/A
10:50 AM66 °FBroken clouds.10 mph83%29.92 "HgN/A
10:20 AM66 °FScattered showers. Partly sunny.5 mph83%29.92 "HgN/A
9:50 AM66 °FScattered showers. Partly sunny.6 mph83%29.92 "HgN/A
9:20 AM64 °FPartly sunny.7 mph88%29.92 "HgN/A
8:50 AM64 °FPartly sunny.6 mph88%29.92 "HgN/A
8:20 AM64 °FPartly sunny.6 mph88%29.92 "HgN/A
7:50 AM64 °FSunny.6 mph88%29.92 "Hg10 mi
7:20 AM63 °FSunny.7 mph88%29.92 "Hg10 mi
6:50 AM63 °FPartly sunny.9 mph94%29.92 "HgN/A
6:20 AM63 °FPassing clouds.7 mph88%29.92 "HgN/A
5:50 AM63 °FClear.6 mph94%29.92 "Hg10 mi
5:20 AM61 °FClear.6 mph94%29.92 "Hg10 mi
4:50 AM63 °FClear.5 mph94%29.92 "Hg10 mi
4:20 AM63 °FClear.7 mph94%29.89 "Hg10 mi
3:50 AM63 °FClear.6 mph94%29.89 "Hg10 mi
3:20 AM64 °FClear.6 mph94%29.89 "Hg10 mi
2:50 AM64 °FClear.7 mph94%29.89 "Hg10 mi
2:20 AM64 °FClear.8 mph94%29.89 "Hg10 mi
1:50 AM64 °FClear.8 mph94%29.89 "Hg10 mi
1:20 AM64 °FClear.8 mph94%29.89 "Hg10 mi
12:50 AM64 °FClear.8 mph94%29.89 "Hg10 mi
12:20 AM64 °FClear.9 mph94%29.89 "Hg10 mi
11:50 PM
Fri, Jul 29
64 °FScattered showers. Clear.7 mph94%29.89 "HgN/A
11:20 PM66 °FSprinkles. Partly cloudy.8 mph88%29.89 "HgN/A
10:50 PM66 °FSprinkles. Partly cloudy.7 mph88%29.89 "HgN/A
10:20 PM66 °FSprinkles. Passing clouds.12 mph83%29.89 "HgN/A
9:50 PM68 °FSprinkles. Broken clouds.6 mph73%29.89 "HgN/A
9:20 PM70 °FScattered showers. Partly sunny.8 mph69%29.89 "HgN/A
8:50 PM70 °FPartly sunny.13 mph69%29.89 "HgN/A
8:20 PM70 °FBroken clouds.12 mph69%29.89 "HgN/A
7:50 PM70 °FSprinkles. Broken clouds.12 mph73%29.89 "HgN/A
7:20 PM70 °FSprinkles. Partly sunny.14 mph73%29.89 "HgN/A
6:50 PM70 °FSprinkles. Broken clouds.14 mph73%29.89 "HgN/A
6:20 PM70 °FSprinkles. Broken clouds.13 mph73%29.89 "HgN/A
5:50 PM70 °FSprinkles. Broken clouds.13 mph73%29.89 "HgN/A
5:20 PM70 °FSprinkles. Broken clouds.20 mph78%29.89 "HgN/A
4:50 PM75 °FSprinkles. Broken clouds.15 mph54%29.89 "HgN/A
4:20 PM77 °FBroken clouds.16 mph51%29.89 "HgN/A
3:50 PM79 °FBroken clouds.18 mph45%29.89 "HgN/A
3:20 PM79 °FPassing clouds.13 mph48%29.89 "HgN/A
Weather by CustomWeather, © 2016

See weather overviewHow to use our weather pages